Hondo, TX

7:56 AM CDT on September 30, 2016 (GMT -0500)
Hondo Municipal

Weather History for KHDO - March, 2013

Change the Weather History Date:

Tuesday, March 12, 2013

  Actual Average Record
Temperature  
Mean Temperature 58 °F -  
Max Temperature 81 °F 69 °F 88 °F (2006)
Min Temperature 35 °F 47 °F 35 °F (2013)
Degree Days  
Heating Degree Days 8    
Growing Degree Days 8 (Base 50)    
Moisture  
Dew Point 31 °F    
Average Humidity 47    
Maximum Humidity 81    
Minimum Humidity 13    
Precipitation  
Precipitation 0.00 in - - ()
Sea Level Pressure  
Sea Level Pressure 30.12 in    
Wind  
Wind Speed 5 mph (East)    
Max Wind Speed 17 mph    
Max Gust Speed 22 mph    
Visibility 10 miles    
Events      
Averages and records for this station are not official NWS values.
T = Trace of Precipitation, MM = Missing Value Source: NWS Daily Summary

Daily Weather History Graph

Daily Weather History Graph

Search for Another Location

Airport or City:

Trip Planner

Search our weather history database for the weather conditions in past years. The results will help you decide how hot, cold, wet, or windy it might be!

Date:

Astronomy

Mar. 12, 2013 Rise Set
Actual Time 7:49 AM CDT 7:43 PM CDT
Civil Twilight 7:25 AM CDT 8:07 PM CDT
Nautical Twilight 6:58 AM CDT 8:34 PM CDT
Astronomical Twilight 6:30 AM CDT 9:02 PM CDT
Moon 8:04 AM CDT (3/12) 8:50 PM CDT (3/12)
Length of Visible Light 12h 41m
Length of Day
11h 53m
New Moon, 1% of the Moon is Illuminated
Mar 12
New Moon
Mar 19
First Quarter
Mar 27
Full
Apr 2
Last Quarter
Apr 10
New

Hourly Weather History & Observations

Time (CDT) Temp. Windchill Dew Point Humidity Pressure Visibility Wind Dir Wind Speed Gust Speed Precip Events Conditions
12:51 AM 46.4 °F 44.3 °F 30.2 °F 53% 30.09 in 10.0 mi NE 4.6 mph - N/A   Clear
1:51 AM 42.1 °F 39.2 °F 34.0 °F 73% 30.08 in 10.0 mi NNE 4.6 mph - N/A   Clear
2:51 AM 41.0 °F 37.1 °F 33.1 °F 73% 30.08 in 10.0 mi NE 5.8 mph - N/A   Clear
3:51 AM 39.9 °F 36.7 °F 33.1 °F 77% 30.07 in 10.0 mi NE 4.6 mph - N/A   Clear
4:51 AM 39.2 °F 35.0 °F 32.0 °F 75% 30.10 in 10.0 mi NNE 5.8 mph - N/A   Clear
5:51 AM 37.9 °F 33.5 °F 28.9 °F 70% 30.09 in 10.0 mi NNE 5.8 mph - 0.00 in   Clear
6:51 AM 37.0 °F 32.4 °F 30.0 °F 76% 30.10 in 10.0 mi NE 5.8 mph - N/A   Clear
7:51 AM 35.6 °F 29.9 °F 30.2 °F 81% 30.13 in 10.0 mi NNE 6.9 mph - N/A   Clear
8:51 AM 43.0 °F 40.3 °F 34.0 °F 71% 30.15 in 10.0 mi NNE 4.6 mph - N/A   Clear
10:51 AM 59.0 °F - 34.0 °F 39% 30.17 in 10.0 mi South 4.6 mph - N/A   Clear
11:51 AM 66.0 °F - 36.0 °F 33% 30.17 in 10.0 mi SSE 6.9 mph - N/A   Clear
12:51 PM 71.1 °F - 32.0 °F 24% 30.16 in 10.0 mi SSW 8.1 mph - N/A   Clear
4:51 PM 79.0 °F - 25.0 °F 14% 30.06 in 10.0 mi South 4.6 mph - N/A   Clear
5:51 PM 80.1 °F - 24.1 °F 13% 30.06 in 10.0 mi ESE 4.6 mph - N/A   Clear
6:51 PM 79.0 °F - 23.0 °F 13% 30.08 in 10.0 mi Calm Calm - N/A   Clear
7:51 PM 71.1 °F - 26.1 °F 19% 30.11 in 10.0 mi SSE 4.6 mph - N/A   Clear
8:51 PM 64.4 °F - 30.2 °F 28% 30.15 in 10.0 mi ESE 3.5 mph - N/A   Clear
9:51 PM 62.1 °F - 32.0 °F 32% 30.15 in 10.0 mi Calm Calm - N/A   Clear
10:51 PM 61.0 °F - 32.0 °F 34% 30.17 in 10.0 mi SSE 17.3 mph 21.9 mph N/A   Clear
11:51 PM 59.0 °F - 39.2 °F 48% 30.21 in 10.0 mi SSE 8.1 mph - N/A   Clear